This is the latest recevied weather packets stored in our database for station/object W2JGA. If no packets are shown the sender has not sent any weather packets the latest 10 day(s).
| Time | Temp. | Humidity | Pressure | Rain* | Wind** | Luminosity | Snow |
|---|---|---|---|---|---|---|---|
| 1778023433 | 23.89° C | 35% | 1012.4 hPa | 0 mm | - | 498 W/m² | - |
| 1778023129 | 24.44° C | 35% | 1012.4 hPa | 0 mm | - | 146 W/m² | - |
| 1778022827 | 23.89° C | 35% | 1012.1 hPa | 0 mm | - | 540 W/m² | - |
| 1778022525 | 23.89° C | 35% | 1012.4 hPa | 0 mm | - | 515 W/m² | - |
| 1778022222 | 23.89° C | 35% | 1012.4 hPa | 0 mm | - | 116 W/m² | - |
| 1778021919 | 24.44° C | 35% | 1012.4 hPa | 0 mm | - | 539 W/m² | - |
| 1778021617 | 23.89° C | 34% | 1012.4 hPa | 0 mm | - | 553 W/m² | - |
| 1778021317 | 24.44° C | 34% | 1012.4 hPa | 0 mm | - | 561 W/m² | - |
| 1778021015 | 23.89° C | 34% | 1012.9 hPa | 0 mm | - | 567 W/m² | - |
| 1778020712 | 24.44° C | 33% | 1012.9 hPa | 0 mm | - | 583 W/m² | - |
| 1778020409 | 24.44° C | 34% | 1012.9 hPa | 0 mm | - | 609 W/m² | - |
| 1778020104 | 23.89° C | 34% | 1012.9 hPa | 0 mm | - | 627 W/m² | - |
| 1778019801 | 23.89° C | 36% | 1012.9 hPa | 0 mm | - | 623 W/m² | - |
| 1778019498 | 23.89° C | 36% | 1012.9 hPa | 0 mm | - | 615 W/m² | - |
| 1778019195 | 23.89° C | 35% | 1012.9 hPa | 0 mm | - | 638 W/m² | - |
| 1778018892 | 23.89° C | 36% | 1012.9 hPa | 0 mm | - | 646 W/m² | - |
| 1778018589 | 22.78° C | 37% | 1012.9 hPa | 0 mm | - | 689 W/m² | - |
| 1778018287 | 23.33° C | 37% | 1013.2 hPa | 0 mm | - | 132 W/m² | - |
| 1778017984 | 23.89° C | 37% | 1012.9 hPa | 0 mm | - | 131 W/m² | - |
| 1778017682 | 23.33° C | 39% | 1013.2 hPa | 0 mm | - | 159 W/m² | - |
| 1778017379 | 23.89° C | 38% | 1013.2 hPa | 0 mm | - | 704 W/m² | - |
| 1778017076 | 23.89° C | 37% | 1013.2 hPa | 0 mm | - | 717 W/m² | - |
| 1778016774 | 23.89° C | 38% | 1013.2 hPa | 0 mm | - | 721 W/m² | - |
| 1778016469 | 23.89° C | 37% | 1013.2 hPa | 0 mm | - | 711 W/m² | - |
| 1778016167 | 23.89° C | 37% | 1013.6 hPa | 0 mm | - | 688 W/m² | - |
* Rain latest hour (hover to see other rain measurements)
** Current wind speed in m/s (hover to see current wind gust speed)